Location: Arcusa
(42.3167°N, 0.0833°W)
Time: 17:55:51
(UTC+00:00)

STARLINK-1056 - Pass Details

Date: 25 January 2020
Orbit: 548 x 551 km, 53.0° (Epoch: 28 February)

Event Time Altitude Azimuth Distance (km) Brightness Sun altitude
Rises 06:17:45 0° 224° (SW) 2,705 6.9 -11.8°
Reaches altitude 10° 06:19:59 10° 221° (SW) 1,816 6.0 -11.4°
Maximum altitude 06:24:04 66° 140° (SE) 601 4.0 -10.6°
Drops below altitude 10° 06:28:12 10° 58° (ENE) 1,829 6.9 -9.9°
Sets 06:30:27 0° 55° (NE) 2,726 7.8 -9.5°
